When you browse on this site, cookies collect data to enhance your experience and personalize the content and advertising you see.
Visit our Privacy Policy to learn more. By continuing to use the site, you agree to this use of cookies and data.
  • Em Portugal
  • Lista de países
  • Para 7 dias
  • Temperatura da água
  • Mapas de satélite
  • Mapa do tempo
  • Widgets de tempo
  • user-avatar
    Iniciar Sessão

    Previsão horária em Agerovo

    Hoje, 22 Abril, Segunda-feira

    Tempo Temperatura Precipitação Vento Pressão Humidade
    00:00 +8°C° 0 mm 1 m/s 763 mmHg 66%
    01:00 +8°C° 0 mm 1 m/s 763 mmHg 67%
    02:00 +6°C° 0 mm 1 m/s 763 mmHg 79%
    03:00 +6°C° 0 mm 1 m/s 764 mmHg 80%
    04:00 +6°C° 0 mm 1 m/s 764 mmHg 81%
    05:00 +6°C° 0 mm 1 m/s 764 mmHg 82%
    06:00 +9°C° 0 mm 1 m/s 764 mmHg 73%
    07:00 +11°C° 0 mm 1 m/s 764 mmHg 65%
    08:00 +14°C° 0 mm 1 m/s 765 mmHg 55%
    09:00 +15°C° 0 mm 1 m/s 765 mmHg 49%
    10:00 +18°C° 0 mm 1 m/s 765 mmHg 43%
    11:00 +20°C° 0 mm 1 m/s 765 mmHg 37%
    12:00 +20°C° 0 mm 1 m/s 764 mmHg 35%
    13:00 +20°C° 0 mm 1 m/s 764 mmHg 34%
    14:00 +19°C° 0 mm 2 m/s 764 mmHg 32%
    15:00 +19°C° 0 mm 2 m/s 764 mmHg 34%
    16:00 +19°C° 0 mm 2 m/s 764 mmHg 35%
    17:00 +18°C° 0 mm 2 m/s 764 mmHg 36%
    18:00 +16°C° 0 mm 2 m/s 764 mmHg 42%
    19:00 +14°C° 0 mm 1 m/s 764 mmHg 48%
    20:00 +12°C° 0 mm 1 m/s 764 mmHg 53%
    21:00 +12°C° 0 mm 1 m/s 764 mmHg 55%
    22:00 +11°C° 0 mm 1 m/s 765 mmHg 56%
    23:00 +10°C° 0 mm 2 m/s 765 mmHg 57%

    Amanhã, 23 Abril, Terça-feira

    Tempo Temperatura Precipitação Vento Pressão Humidade
    00:00 +9°C° 0 mm 2 m/s 765 mmHg 58%
    01:00 +9°C° 0 mm 2 m/s 765 mmHg 60%
    02:00 +8°C° 0 mm 2 m/s 766 mmHg 61%
    03:00 +8°C° 0 mm 2 m/s 766 mmHg 63%
    04:00 +8°C° 0 mm 2 m/s 766 mmHg 65%
    05:00 +7°C° 0 mm 2 m/s 766 mmHg 66%
    06:00 +9°C° 0 mm 2 m/s 766 mmHg 62%
    07:00 +12°C° 0 mm 2 m/s 766 mmHg 57%
    08:00 +14°C° 0 mm 2 m/s 766 mmHg 52%
    09:00 +16°C° 0 mm 2 m/s 766 mmHg 46%
    10:00 +17°C° 0 mm 2 m/s 766 mmHg 40%
    11:00 +19°C° 0 mm 2 m/s 766 mmHg 34%
    12:00 +19°C° 0 mm 2 m/s 766 mmHg 33%
    13:00 +20°C° 0 mm 2 m/s 766 mmHg 32%
    14:00 +21°C° 0 mm 1 m/s 765 mmHg 31%
    15:00 +21°C° 0 mm 1 m/s 765 mmHg 32%
    16:00 +21°C° 0 mm 1 m/s 765 mmHg 33%
    17:00 +20°C° 0 mm 1 m/s 765 mmHg 34%
    18:00 +18°C° 0 mm 1 m/s 765 mmHg 39%
    19:00 +15°C° 0 mm 1 m/s 765 mmHg 45%
    20:00 +13°C° 0 mm 1 m/s 765 mmHg 50%
    21:00 +13°C° 0 mm 1 m/s 765 mmHg 51%
    22:00 +12°C° 0 mm 1 m/s 765 mmHg 51%
    23:00 +10°C° 0 mm 0 m/s 765 mmHg 52%

    Depois de amanhã, 24 Abril, Quarta-feira

    Tempo Temperatura Precipitação Vento Pressão Humidade
    00:00 +11°C° 0 mm 1 m/s 766 mmHg 53%
    01:00 +11°C° 0 mm 1 m/s 766 mmHg 54%
    02:00 +10°C° 0 mm 1 m/s 766 mmHg 56%
    03:00 +10°C° 0 mm 1 m/s 766 mmHg 57%
    04:00 +8°C° 0 mm 0 m/s 766 mmHg 59%
    05:00 +8°C° 0 mm 0 m/s 766 mmHg 61%
    06:00 +10°C° 0 mm 0 m/s 766 mmHg 56%
    07:00 +13°C° 0 mm 0 m/s 766 mmHg 51%
    08:00 +15°C° 0 mm 0 m/s 766 mmHg 45%
    09:00 +17°C° 0 mm 0 m/s 766 mmHg 41%
    10:00 +19°C° 0 mm 0 m/s 766 mmHg 37%
    11:00 +21°C° 0 mm 0 m/s 766 mmHg 33%
    12:00 +23°C° 0 mm 1 m/s 766 mmHg 32%
    13:00 +23°C° 0 mm 1 m/s 765 mmHg 31%
    14:00 +23°C° 0 mm 1 m/s 765 mmHg 29%
    15:00 +23°C° 0 mm 1 m/s 765 mmHg 31%
    16:00 +22°C° 0 mm 1 m/s 764 mmHg 32%
    17:00 +22°C° 0 mm 1 m/s 764 mmHg 34%
    18:00 +20°C° 0 mm 1 m/s 764 mmHg 40%
    19:00 +18°C° 0 mm 1 m/s 764 mmHg 46%
    20:00 +15°C° 0 mm 1 m/s 764 mmHg 52%
    21:00 +14°C° 0 mm 1 m/s 764 mmHg 54%
    22:00 +13°C° 0 mm 1 m/s 764 mmHg 56%
    23:00 +13°C° 0 mm 1 m/s 764 mmHg 59%

    25 Abril, Quinta-feira

    Tempo Temperatura Precipitação Vento Pressão Humidade
    00:00 +12°C° 0 mm 1 m/s 764 mmHg 60%
    01:00 +12°C° 0 mm 1 m/s 764 mmHg 61%
    02:00 +11°C° 0 mm 1 m/s 765 mmHg 62%
    03:00 +11°C° 0 mm 1 m/s 764 mmHg 63%
    04:00 +11°C° 0 mm 1 m/s 764 mmHg 63%
    05:00 +11°C° 0 mm 1 m/s 764 mmHg 63%
    06:00 +13°C° 0 mm 1 m/s 764 mmHg 58%
    07:00 +15°C° 0 mm 1 m/s 764 mmHg 53%
    08:00 +18°C° 0 mm 1 m/s 764 mmHg 49%
    09:00 +19°C° 0 mm 1 m/s 764 mmHg 44%
    10:00 +20°C° 0 mm 2 m/s 764 mmHg 39%
    11:00 +21°C° 0 mm 2 m/s 763 mmHg 34%
    12:00 +21°C° 0 mm 2 m/s 763 mmHg 34%
    13:00 +21°C° 0 mm 2 m/s 763 mmHg 34%
    14:00 +23°C° 0 mm 2 m/s 762 mmHg 33%
    15:00 +23°C° 0 mm 2 m/s 762 mmHg 35%
    16:00 +21°C° 0 mm 2 m/s 762 mmHg 36%
    17:00 +21°C° 0 mm 2 m/s 761 mmHg 37%
    18:00 +20°C° 0 mm 1 m/s 761 mmHg 43%
    19:00 +18°C° 0 mm 1 m/s 761 mmHg 49%
    20:00 +15°C° 0 mm 1 m/s 761 mmHg 56%
    21:00 +15°C° 0 mm 1 m/s 761 mmHg 58%
    22:00 +14°C° 0 mm 1 m/s 761 mmHg 59%
    23:00 +14°C° 0 mm 1 m/s 761 mmHg 61%

    26 Abril, Sexta-feira

    Tempo Temperatura Precipitação Vento Pressão Humidade
    00:00 +13°C° 0 mm 1 m/s 761 mmHg 61%
    01:00 +13°C° 0 mm 1 m/s 761 mmHg 61%
    02:00 +13°C° 0 mm 1 m/s 761 mmHg 62%
    03:00 +13°C° 0 mm 1 m/s 761 mmHg 63%
    04:00 +12°C° 0 mm 1 m/s 761 mmHg 64%
    05:00 +12°C° 0 mm 1 m/s 760 mmHg 66%
    06:00 +14°C° 0 mm 2 m/s 760 mmHg 62%
    07:00 +15°C° 0 mm 2 m/s 760 mmHg 58%
    08:00 +17°C° 0 mm 2 m/s 760 mmHg 54%
    09:00 +18°C° 0 mm 2 m/s 760 mmHg 49%
    10:00 +20°C° 0 mm 3 m/s 759 mmHg 44%
    11:00 +21°C° 0 mm 3 m/s 759 mmHg 38%
    12:00 +22°C° 0 mm 3 m/s 759 mmHg 37%
    13:00 +22°C° 0 mm 3 m/s 758 mmHg 37%
    14:00 +23°C° 0 mm 2 m/s 758 mmHg 36%
    15:00 +23°C° 0 mm 2 m/s 758 mmHg 40%
    16:00 +21°C° 0 mm 2 m/s 757 mmHg 43%
    17:00 +20°C° 0 mm 2 m/s 757 mmHg 47%
    18:00 +19°C° 0 mm 2 m/s 757 mmHg 50%
    19:00 +18°C° 0 mm 2 m/s 757 mmHg 54%
    20:00 +16°C° 0 mm 2 m/s 757 mmHg 57%
    21:00 +15°C° 0 mm 2 m/s 757 mmHg 61%
    22:00 +14°C° 0 mm 2 m/s 756 mmHg 64%
    23:00 +13°C° 0 mm 2 m/s 756 mmHg 67%

    27 Abril, Sábado

    Tempo Temperatura Precipitação Vento Pressão Humidade
    00:00 +13°C° 0 mm 2 m/s 756 mmHg 69%
    01:00 +13°C° 0 mm 2 m/s 756 mmHg 71%
    02:00 +12°C° 0 mm 2 m/s 756 mmHg 73%
    03:00 +12°C° 0 mm 2 m/s 755 mmHg 75%
    04:00 +10°C° 0 mm 2 m/s 755 mmHg 77%
    05:00 +10°C° 0 mm 2 m/s 755 mmHg 79%
    06:00 +13°C° 0 mm 2 m/s 755 mmHg 73%
    07:00 +15°C° 0 mm 2 m/s 755 mmHg 67%
    08:00 +17°C° 0 mm 2 m/s 755 mmHg 60%
    09:00 +18°C° 0 mm 3 m/s 754 mmHg 53%
    10:00 +20°C° 0 mm 3 m/s 754 mmHg 46%
    11:00 +22°C° 0 mm 3 m/s 754 mmHg 38%
    12:00 +24°C° 0 mm 3 m/s 753 mmHg 38%
    13:00 +24°C° 0 mm 3 m/s 753 mmHg 38%
    14:00 +24°C° 0 mm 3 m/s 753 mmHg 38%
    15:00 +24°C° 0 mm 3 m/s 752 mmHg 42%
    16:00 +24°C° 0 mm 3 m/s 752 mmHg 47%
    17:00 +23°C° 0 mm 2 m/s 751 mmHg 51%
    18:00 +20°C° 0 mm 2 m/s 751 mmHg 59%
    19:00 +18°C° 0 mm 2 m/s 751 mmHg 67%
    20:00 +17°C° 0 mm 2 m/s 751 mmHg 75%
    21:00 +16°C° 0 mm 2 m/s 751 mmHg 77%
    22:00 +16°C° 0 mm 2 m/s 751 mmHg 80%
    23:00 +15°C° 0 mm 2 m/s 750 mmHg 82%
    Mostrar mais